ATLAS 5 CENTAUR DEB, 44645

Orbit data source: Space-Track

ATLAS 5 CENTAUR DEB, 44645 is space debris in HEO originally from a launch on Wed, 17 Oct 2018 UTC launched from the Air Force Eastern Test Range (AFETR). Debris objects in space refer to the collection of defunct objects orbiting the Earth. Examples of debris include non-operational satellites, rocket bodies, and fragments generated from explosions, collisions, or faulty payload assembly.

Loading next visibility...
ATLAS 5 CENTAUR DEB details
Identifier
44645, 2018-079F
Orbit
HEO
Last TLE update1 day ago
Origin
Flag of USULA (US)
ManufacturerULA Decatur
MissionSpacecraft
Bus & MotorUnknown
MassUnknown
Launch date (UTC)
2018-10-17 (6 years ago)
Launch vehicleUnknown
Launch site
Air Force Eastern Test Range (AFETR)
Object type
Payload
Rocket body
Debris
Shape & HBRUnknown
Radar Cross SectionRCS unknown

Expand to show TLE details & history

TLE from 1 day ago
0 ATLAS 5 CENTAUR DEB
1 44645U 18079F   24360.45275958 -.00000106  00000-0  00000+0 0  9995
2 44645  12.8820  65.9748 4636417 257.7753  48.2135  1.89807809 42810
Epoch: 2024-12-25T10:51Z
Definitive object data (Epoch: 2024-12-25T10:51:58.427Z)
Latitude-0°
Longitude168.49057°
Altitude17,630.92 km
Speed4.329 km/s
True Right ascension04h 23m 43s
True Declination0° 00' 00"
Sunlit
Object was in daylight at TLE epoch
Visualization TLE readout
Latitude-7.56826°
Longitude132.99318°
Altitude11,833.376 km
Speed5.414 km/s
Apparent Right ascension01h 21m 28s
Apparent Declination-16° 42' 59"
Sunlit
Object is in daylight
Visualization observer readout
Local Sidereal Time10:41:04
Azimuth292.02° WNW
Elevation-48.286°
Doppler factor1
Orbital elements
Apogee altitude33,954.909 km
Perigee altitude8,402.095 km
Semi-major axis27,556.639 km
Eccentricity0.4636417
Inclination12.882°
RAAN65.9748°
Arg. of periapsis257.7753°
True anomaly102.15494°
Mean anomaly48.2135°
Eccentric anomaly73.71201°
Mean motion0.47446 °/min
BSTARUnknown
Orbital period758.75 mins
Loading maneuver chart data...

ATLAS 5 CENTAUR DEB Visibility forecast

Observer location: undefined°, undefined

Span
Click to sort rows by Start time (UTC) header in descending order
Start Az.
Max El. time (UTC)
Max El. Az.
Max El.
End time (UTC)
End Az.
51 mins2024-12-26 23:03:44.913Z200.107° SSW2024-12-26 23:24:44.913Z169.152° S12.734°2024-12-26 23:54:44.913Z135.592° SSE
286 mins2024-12-27 04:16:44.913Z90.954° ESE2024-12-27 07:14:44.913Z95.095° ESE16.01°2024-12-27 09:02:44.913Z95.693° ESE
|